{"data":{"norad_id":56054,"intl_designator":"2023-043J","name":"ONEWEB-0552","alt_names":[],"object_type":"PAYLOAD","status":"ACTIVE","operator":null,"country":"UK","launch_date":"2023-03-26","launch_site_code":"SRILR","launch_vehicle":null,"mission":null,"orbit_class":"UNKNOWN","rcs_meters":null,"size_class":null,"mass_kg":null,"dimensions":null,"purposes":["comms"],"wikipedia_slug":null,"has_3d_model":false,"image_url":null,"decayed_at":null,"tle_current":{"epoch":"2026-09-20T03:31:44.980032Z","epoch_age_seconds":52513,"freshness":"FRESH","line1":"1 56054U 23043J   26263.14704838  .00000098  00000+0  20569-3 0  9997","line2":"2 56054  87.9275 225.0786 0002167  75.0889 285.0485 13.21826419170774","mean_motion":13.21826419,"eccentricity":0.0002167,"inclination_deg":87.9275,"raan_deg":225.0786,"arg_perigee_deg":75.0889,"mean_anomaly_deg":285.0485,"bstar":0.00020569,"rev_number":17077,"period_min":108.94017393671,"perigee_km":1176.1144105318,"apogee_km":1179.3891327254,"semimajor_km":7555.8887716286,"source":"CELESTRAK","updated_at":"2026-09-20T09:00:44.788043Z"}}}